PST,Max TemperatureF,Mean TemperatureF,Min TemperatureF,Max Dew PointF,MeanDew PointF,Min DewpointF,Max Humidity, Mean Humidity, Min Humidity, Max Sea Level PressureIn, Mean Sea Level PressureIn, Min Sea Level PressureIn, Max VisibilityMiles, Mean VisibilityMiles, Min VisibilityMiles, Max Wind SpeedMPH, Mean Wind SpeedMPH, Max Gust SpeedMPH,PrecipitationIn, CloudCover, Events, WindDirDegrees
2013-2-1,75,62,48,42,37,32,71,46,21,30.20,30.15,30.11,10,10,10,10,5,12,0.00,0,,348
2013-2-2,78,66,53,44,38,31,66,44,21,30.23,30.16,30.12,10,10,10,8,4,10,0.00,4,,335
2013-2-3,76,70,63,45,43,39,48,39,29,30.10,30.04,29.96,10,10,10,22,5,25,T,3,Rain,288
2013-2-4,82,68,53,44,36,28,64,40,15,30.04,29.98,29.91,10,10,10,10,5,15,0.00,0,,319
2013-2-5,79,66,53,43,36,29,59,38,16,30.00,29.93,29.86,10,10,9,9,4,14,0.00,1,,35
2013-2-6,78,64,50,43,40,33,68,45,21,30.03,29.93,29.85,10,10,8,17,5,22,0.00,0,,306
2013-2-7,74,60,46,41,36,24,71,44,16,30.06,29.96,29.85,10,9,6,13,4,14,0.00,0,,352
2013-2-8,59,53,47,41,36,21,54,40,26,29.91,29.87,29.84,10,10,10,32,9,39,0.02,3,Rain,349
2013-2-9,62,50,38,38,32,27,92,60,28,30.04,29.95,29.86,10,10,10,20,3,24,0.00,1,,207
2013-2-10,63,52,40,33,30,28,76,52,27,30.04,30.00,29.94,10,10,10,16,3,20,0.00,1,,304
2013-2-11,63,55,47,37,18,2,65,37,8,30.23,30.12,30.03,10,10,10,28,10,33,0.00,1,,316
2013-2-12,68,55,41,27,15,7,36,23,10,30.33,30.26,30.20,10,10,10,12,4,14,0.00,0,,327
2013-2-13,76,60,44,31,24,16,49,30,11,30.25,30.17,30.08,10,10,10,12,4,14,0.00,0,,334
2013-2-14,80,64,47,33,25,18,48,30,11,30.19,30.13,30.07,10,10,10,16,6,21,0.00,0,,330
2013-2-15,79,66,52,26,19,13,32,20,8,30.27,30.21,30.17,10,10,10,17,6,20,0.00,0,,303
2013-2-16,79,67,54,24,16,5,28,17,6,30.23,30.11,29.96,10,10,10,10,5,14,0.00,1,,289
2013-2-17,80,64,48,33,22,13,39,24,9,29.94,29.87,29.81,10,10,10,16,5,22,0.00,0,,310
2013-2-18,75,61,46,41,32,24,65,40,15,30.00,29.91,29.85,10,10,10,12,2,15,0.00,0,,108
2013-2-19,65,55,44,42,37,31,83,58,32,29.85,29.75,29.65,10,10,9,24,6,33,0.00,2,Rain,323
2013-2-20,62,53,43,41,34,29,92,62,32,29.92,29.75,29.64,10,10,5,20,6,26,0.27,3,Rain,328
2013-2-21,63,53,42,36,31,23,70,49,27,30.08,29.98,29.92,10,10,10,17,3,22,0.00,1,,268
2013-2-22,70,56,41,32,24,13,58,35,11,30.17,30.12,30.07,10,10,10,12,4,13,0.00,0,,348
2013-2-23,71,57,42,37,30,17,65,42,19,30.13,29.96,29.77,10,10,10,12,5,15,0.00,0,,356
2013-2-24,67,60,52,10,2,-4,19,13,6,30.20,30.13,30.03,10,10,10,31,13,37,0.00,0,,356
2013-2-25,69,56,42,23,13,7,31,20,9,30.24,30.13,30.02,10,10,10,13,6,15,0.00,0,,360
2013-2-26,74,59,44,28,15,3,42,25,7,30.16,30.05,29.99,10,10,10,18,5,23,0.00,0,,309
2013-2-27,72,59,45,18,11,2,31,19,7,30.30,30.25,30.19,10,10,10,9,3,13,0.00,0,,275
2013-2-28,79,64,48,18,11,4,23,15,6,30.35,30.30,30.24,10,10,10,12,5,13,0.00,0,,296